Tracking 18852 objects as of 24-Nov-2017
HD Live streaming from Space Station
objects crossing your sky now

FENGYUN 1C DEB

Track FENGYUN 1C DEB now!
10-day predictions


NORAD ID: 36693
Int'l Code: 1999-025DZP
Perigee: 570.3 km
Apogee: 803.2 km
Inclination: 97.6 °
Period: 98.3 minutes
Semi major axis: 7057 km
RCS: 0.009 m2 (small)
Launch date: May 10, 1999
Source: People's Republic of China (PRC)
Launch site: Taiyaun Space Center, China (TSC)

Note: This is SATELLITE DEBRIS
aabbcc
Your satellite tracking list
Your tracking list is empty




NASA's NSSDC Master Catalog

Two Line Element Set (TLE):
1 36693U 99025DZP 17327.01468546  .00006744  00000-0  10563-2 0  9994
2 36693  97.6009 262.3578 0164973  52.2770 309.3257 14.64219958539742
Source of the keplerian elements: AFSPC